Temp
-13 -13 -13 -13 -14 -15 -15 -16 -15 -15 -16 -16 -16 -16 -16 -17 -17 -17 -17 -17 -17 -17 -16 -16 -16 -16 -16 -16 -16 -16 -16 -15
-14 -14 -15 -14 -14 -15 -16 -16 -14 -15 -16 -16 -16 -17 -16 -17 -18 -18 -17 -17 -17 -17 -17 -17 -17 -17 -17 -16 -16 -16 -16 -16
-15 -16 -16 -16 -16 -15 -16 -16 -16 -16 -16 -16 -17 -17 -17 -17 -18 -18 -18 -18 -18 -17 -17 -18 -18 -17 -17 -17 -17 -17 -18 -18
-16 -17 -16 -16 -16 -15 -15 -16 -16 -16 -16 -17 -17 -17 -18 -18 -18 -18 -18 -18 -18 -18 -18 -18 -18 -18 -18 -18 -18 -19 -19 -19
-16 -16 -16 -16 -16 -16 -16 -16 -16 -17 -17 -18 -18 -18 -18 -18 -19 -19 -19 -19 -18 -18 -19 -19 -18 -18 -19 -19 -19 -20 -20 -20
-16 -16 -17 -16 -17 -17 -17 -17 -18 -18 -17 -18 -18 -18 -19 -19 -18 -18 -18 -18 -18 -18 -18 -18 -19 -19 -20 -20 -21 -21 -22 -22
-16 -16 -17 -17 -17 -17 -18 -18 -17 -17 -18 -18 -18 -18 -18 -17 -18 -18 -18 -18 -18 -19 -19 -20 -20 -20 -21 -22 -22 -23 -23 -23
-16 -17 -17 -17 -17 -18 -18 -18 -18 -18 -18 -18 -18 -17 -17 -18 -18 -18 -18 -19 -19 -19 -20 -21 -22 -22 -23 -23 -24 -24 -24 -24
-16 -17 -17 -17 -17 -18 -18 -18 -18 -17 -17 -17 -17 -17 -17 -17 -18 -18 -19 -19 -20 -21 -21 -22 -23 -23 -24 -24 -24 -25 -26 -27
-17 -18 -18 -18 -18 -18 -17 -17 -17 -17 -17 -17 -18 -18 -18 -18 -19 -19 -20 -20 -21 -22 -22 -23 -24 -24 -25 -26 -27 -29 -29 -30
-18 -18 -18 -18 -17 -18 -18 -17 -18 -18 -18 -18 -18 -18 -19 -19 -20 -20 -20 -21 -23 -23 -24 -24 -25 -27 -29 -30 -31 -31 -30 -31
-18 -17 -17 -17 -18 -18 -18 -18 -18 -18 -19 -19 -19 -19 -19 -20 -20 -21 -21 -22 -23 -24 -25 -26 -28 -31 -31 -31 -32 -32 -32 -33
-18 -18 -18 -19 -19 -18 -19 -18 -18 -19 -18 -19 -19 -19 -20 -20 -21 -22 -22 -23 -24 -26 -28 -30 -31 -31 -31 -32 -32 -33 -33 -33
-18 -19 -19 -19 -18 -18 -18 -18 -19 -19 -19 -19 -20 -20 -20 -21 -22 -22 -23 -24 -26 -29 -30 -31 -32 -32 -31 -32 -33 -33 -32 -32
-18 -19 -19 -18 -18 -18 -19 -19 -19 -19 -19 -19 -20 -20 -21 -22 -23 -24 -25 -27 -28 -30 -31 -32 -32 -32 -32 -33 -33 -33 -32 -33
-19 -18 -18 -19 -19 -19 -19 -19 -19 -19 -19 -20 -20 -21 -22 -23 -24 -24 -27 -28 -30 -31 -32 -32 -33 -33 -33 -33 -33 -33 -33 -33
-19 -19 -19 -19 -19 -19 -19 -19 -19 -19 -20 -21 -22 -22 -23 -24 -25 -26 -28 -30 -31 -33 -33 -34 -33 -33 -33 -33 -33 -33 -33 -33
-19 -19 -19 -19 -19 -19 -19 -19 -20 -20 -21 -22 -23 -23 -24 -25 -27 -29 -30 -31 -32 -33 -34 -33 -33 -33 -33 -33 -33 -32 -33 -34
-19 -20 -20 -19 -19 -19 -19 -20 -20 -21 -22 -23 -24 -24 -25 -26 -29 -30 -31 -33 -33 -33 -33 -33 -33 -33 -33 -33 -33 -33 -34 -34
Height
5818 5818 5818 5816 5814 5811 5810 5807 5801 5797 5795 5793 5789 5785 5781 5777 5773 5769 5763 5757 5751 5745 5740 5736 5733 5729 5725 5722 5719 5715 5711 5709
5814 5811 5811 5808 5808 5806 5803 5799 5798 5792 5788 5784 5780 5777 5773 5767 5761 5756 5751 5744 5739 5734 5730 5726 5721 5717 5712 5708 5704 5699 5695 5690
5810 5809 5806 5804 5802 5799 5797 5793 5788 5785 5781 5777 5774 5768 5763 5757 5750 5744 5739 5733 5728 5723 5716 5710 5704 5698 5693 5688 5683 5678 5672 5667
5808 5806 5806 5803 5800 5797 5793 5788 5783 5778 5773 5767 5762 5758 5753 5747 5739 5733 5727 5722 5715 5709 5703 5695 5688 5680 5674 5668 5661 5653 5648 5643
5805 5803 5801 5798 5793 5789 5784 5779 5773 5768 5763 5759 5754 5750 5745 5739 5732 5726 5719 5713 5705 5696 5687 5679 5672 5665 5657 5649 5640 5631 5622 5616
5800 5795 5792 5788 5785 5781 5777 5770 5764 5758 5755 5752 5747 5742 5737 5730 5723 5716 5707 5698 5690 5680 5671 5662 5653 5643 5632 5623 5614 5605 5597 5590
5796 5793 5790 5784 5778 5774 5768 5762 5759 5755 5750 5745 5740 5734 5727 5720 5711 5702 5691 5681 5670 5659 5646 5634 5624 5615 5605 5596 5587 5579 5572 5565
5785 5784 5780 5775 5770 5764 5757 5753 5748 5744 5740 5734 5728 5721 5712 5703 5693 5682 5670 5658 5648 5639 5627 5615 5603 5592 5583 5573 5562 5550 5541 5534
5776 5769 5765 5762 5760 5757 5752 5747 5743 5737 5730 5722 5714 5705 5694 5686 5676 5666 5654 5642 5629 5616 5603 5591 5579 5566 5555 5545 5535 5525 5514 5503
5767 5760 5754 5750 5747 5745 5741 5735 5729 5723 5715 5706 5697 5688 5679 5669 5659 5647 5634 5620 5606 5590 5578 5567 5555 5543 5529 5518 5509 5497 5486 5477
5760 5755 5749 5745 5740 5735 5728 5721 5715 5710 5702 5692 5683 5674 5664 5651 5638 5626 5616 5602 5586 5572 5557 5544 5528 5516 5507 5499 5489 5477 5463 5455
5748 5744 5740 5736 5730 5725 5719 5713 5706 5698 5689 5680 5670 5659 5648 5635 5623 5609 5595 5578 5561 5544 5527 5515 5502 5495 5487 5477 5468 5455 5447 5441
5741 5736 5732 5726 5722 5717 5709 5702 5694 5685 5675 5666 5654 5642 5628 5613 5598 5582 5567 5552 5535 5522 5506 5496 5486 5479 5471 5463 5454 5444 5438 5432
5736 5731 5725 5719 5714 5708 5701 5692 5682 5672 5662 5650 5638 5622 5607 5592 5576 5560 5544 5530 5515 5500 5490 5482 5472 5463 5456 5450 5442 5434 5427 5420
5729 5723 5718 5712 5705 5697 5689 5678 5668 5657 5645 5634 5619 5604 5589 5573 5557 5540 5522 5507 5494 5482 5473 5468 5458 5449 5442 5437 5430 5422 5415 5407
5719 5713 5707 5700 5692 5683 5673 5663 5652 5640 5628 5614 5599 5584 5567 5549 5533 5519 5503 5487 5477 5466 5461 5453 5446 5439 5433 5427 5419 5411 5403 5393
5707 5701 5694 5686 5678 5669 5659 5649 5637 5623 5609 5591 5577 5563 5548 5530 5513 5498 5483 5470 5460 5453 5448 5442 5435 5430 5424 5416 5409 5401 5390 5380
5696 5690 5682 5674 5665 5656 5645 5633 5619 5603 5589 5574 5559 5544 5527 5512 5494 5479 5467 5456 5449 5445 5440 5434 5429 5422 5415 5407 5398 5387 5377 5368
5686 5678 5671 5662 5651 5640 5627 5614 5602 5589 5574 5558 5541 5526 5510 5493 5478 5466 5456 5448 5443 5438 5433 5428 5421 5413 5405 5397 5387 5378 5368 5359
Wind_Speed
20 19 20 24 27 27 29 35 38 36 39 43 43 38 44 44 48 48 50 49 49 49 50 50 51 52 54 56 58 61 64 66
24 25 27 31 29 30 36 37 32 41 49 48 38 43 45 48 50 54 52 52 53 54 56 57 58 60 62 64 66 67 69 71
25 25 30 28 34 36 37 42 48 50 47 44 46 46 47 49 49 55 56 57 58 60 64 67 69 71 74 75 76 76 77 78
22 24 26 34 38 41 44 46 47 47 48 49 48 47 48 50 53 56 60 61 65 67 70 73 76 79 81 83 83 84 83 83
24 27 33 38 40 41 42 44 46 47 47 46 46 47 49 52 56 58 61 64 67 71 74 78 81 84 85 86 85 85 85 84
27 37 39 42 41 41 43 44 44 45 45 45 46 48 50 52 56 61 65 69 72 78 80 83 84 86 87 85 84 84 85 86
35 39 40 39 42 40 37 41 42 42 43 43 45 47 52 58 63 67 72 76 80 83 87 90 91 90 87 84 84 84 84 85
36 38 40 42 40 34 36 38 39 42 43 43 47 54 60 65 70 76 80 85 88 88 89 89 89 86 84 84 86 87 88 89
40 46 46 38 32 31 32 33 34 37 43 50 56 63 68 73 77 81 84 87 89 90 90 87 85 87 88 89 90 90 88 87
44 35 40 37 33 31 33 36 40 46 53 60 65 70 74 78 82 85 87 89 89 89 91 89 88 90 88 86 80 81 82 77
29 34 36 33 35 38 42 45 50 56 61 67 71 75 79 84 87 89 90 88 86 88 89 89 88 79 65 68 77 74 66 63
38 36 36 39 42 45 47 51 56 62 67 71 75 79 83 85 88 89 89 89 93 90 91 88 78 62 62 72 66 63 50 46
42 40 43 45 47 48 52 57 63 68 71 74 79 83 87 90 91 93 94 92 96 89 77 77 66 65 67 63 64 46 45 43
40 41 44 47 48 52 56 62 67 70 74 79 83 88 91 92 93 95 94 93 86 71 70 55 63 69 72 66 53 49 50 50
41 44 46 47 51 57 62 66 70 75 80 83 87 90 91 92 94 94 92 82 75 67 56 55 69 71 62 50 49 51 51 53
41 44 48 52 57 61 65 69 75 79 83 86 89 92 93 95 96 94 82 74 67 54 45 60 62 48 42 47 48 50 53 55
45 49 53 57 60 63 68 74 78 81 85 88 91 92 93 95 94 88 73 65 53 47 48 52 39 39 45 46 48 52 52 50
49 53 57 60 63 68 72 76 80 84 86 88 90 91 93 95 87 72 58 48 42 38 37 32 36 41 44 45 51 50 49 45
51 55 58 62 67 71 75 79 82 84 86 88 89 92 94 87 71 55 44 30 34 34 31 33 39 42 44 48 49 48 43 38
Wind_Direction
317 308 309 312 314 318 314 313 313 311 312 311 309 300 304 301 297 306 308 309 311 310 308 307 307 305 304 303 301 300 298 295
315 319 313 314 317 314 314 312 291 294 306 310 302 299 300 299 305 305 308 310 308 306 307 306 304 303 302 302 300 298 296 295
322 315 309 306 310 308 303 297 300 304 303 299 297 299 300 304 303 303 305 306 307 307 308 308 307 304 302 300 298 296 295 292
305 300 302 303 300 297 297 297 298 295 294 299 300 302 305 302 303 305 307 307 308 308 306 304 304 302 301 300 297 295 292 290
276 285 298 298 295 294 294 293 292 295 295 297 298 300 301 303 304 303 303 303 303 303 303 301 299 298 296 294 292 290 289 288
273 297 306 302 300 301 298 295 292 291 295 297 298 299 299 299 299 300 301 302 302 300 299 298 298 297 296 295 293 290 289 288
280 290 294 294 299 300 292 284 286 290 292 294 298 301 302 300 301 302 302 301 302 304 305 306 304 302 299 296 293 291 288 286
292 297 296 297 296 290 287 291 292 296 302 302 300 301 303 305 306 307 308 308 307 306 304 302 300 298 296 294 292 290 288 285
302 300 298 296 293 289 286 289 293 299 304 305 306 307 309 309 308 307 307 307 306 305 303 302 301 300 297 295 292 290 287 286
296 292 301 304 306 306 304 307 309 311 312 311 311 310 309 308 308 308 308 308 308 305 306 305 302 300 297 297 293 294 293 290
297 300 297 301 307 310 312 313 314 313 311 310 309 308 310 310 310 309 308 308 305 305 303 305 303 301 299 296 297 302 298 289
306 301 307 308 312 312 312 311 312 310 308 308 309 310 310 309 308 309 311 310 310 311 308 306 306 298 299 307 307 310 306 299
299 304 310 310 310 311 311 310 309 308 308 309 310 311 310 310 313 314 314 314 313 309 301 303 297 296 290 308 315 312 304 298
297 304 304 306 305 306 308 308 306 306 309 311 312 312 313 315 315 314 314 314 310 305 301 299 301 298 303 304 308 306 303 300
298 299 298 301 307 309 307 306 309 312 311 312 313 313 315 315 315 316 315 310 306 302 303 295 297 298 303 305 305 305 303 303
300 302 307 309 308 309 310 311 312 311 313 313 314 316 317 317 317 317 313 308 307 305 288 287 296 305 312 307 308 307 306 305
305 308 309 309 309 310 311 311 312 314 315 315 317 318 318 318 317 315 312 309 308 296 297 301 306 313 310 312 312 310 310 312
307 308 309 310 310 311 312 313 315 316 316 316 318 319 319 318 316 316 314 312 309 313 309 312 315 313 314 315 315 317 319 315
307 308 309 311 312 313 314 315 315 315 316 318 319 319 318 318 318 318 317 303 309 308 307 316 319 319 319 320 321 322 318 316